Regional Weather Roundup
Issued by NWS

Home | Current Version | Previous Version | Text Only | Print | Product List | Glossary Off
Versions: 1 2 3 4 5 6 7 8 9 10 11 12 13 14 15 16 17 18 19 20 21 22 23 24 25 26 27 28 29 30 31 32 33 34 35 36 37 38 39 40 41 42 43 44 45 46 47 48 49 50

542
ASUS45 KPSR 081810
RWRAZ

ARIZONA HOURLY REGIONAL WEATHER ROUNDUP
NATIONAL WEATHER SERVICE PHOENIX AZ
1100 AM MST MON FEB 08 2016

NOTE: FAIR INDICATES FEW OR NO CLOUDS BELOW 12,000 FEET WITH NO
SIGNIFICANT WEATHER AND/OR OBSTRUCTIONS TO VISIBILITY.

AZZ001>003-036-081900-
NORTHWEST ARIZONA

CITY           SKY/WX    TMP DP  RH WIND       PRES   REMARKS
BULLHEAD CITY  SUNNY     64  23  20 N35G40    30.34F
KINGMAN        SUNNY     57  21  24 N15       30.42F
6HR MIN TEMP:  37; 6HR MAX TEMP:  57;

$$

AZZ004>008-015-016-018-081900-
NORTH CENTRAL ARIZONA

CITY           SKY/WX    TMP DP  RH WIND       PRES   REMARKS
GRAND CANYON   SUNNY     51  16  24 E15       30.53R
6HR MIN TEMP:  25; 6HR MAX TEMP:  52;

WILLIAMS       SUNNY     52  14  22 CALM      30.54F
PRESCOTT       SUNNY     52  18  26 N3        30.44F
6HR MIN TEMP:  27; 6HR MAX TEMP:  52;

FLAGSTAFF      SUNNY     47  16  29 NE13G22   30.52S
6HR MIN TEMP:  33; 6HR MAX TEMP:  47;

PAYSON         SUNNY     61  12  15 NE21G29   30.42S
PAGE           SUNNY     40  26  57 NE5       30.58R
6HR MIN TEMP:  28; 6HR MAX TEMP:  40;

$$

AZZ009>014-017-081900-
NORTHEAST ARIZONA

CITY           SKY/WX    TMP DP  RH WIND       PRES   REMARKS
WINSLOW        SUNNY     45  20  36 W3        30.54F
6HR MIN TEMP:  19; 6HR MAX TEMP:  45;

SAINT JOHNS    SUNNY     41  20  43 CALM      30.52S
6HR MIN TEMP:  16; 6HR MAX TEMP:  41;

WINDOW ROCK    SUNNY     45   0  15 CALM      30.49F
6HR MIN TEMP:  19; 6HR MAX TEMP:  45;

SHOW LOW       SUNNY     37  18  44 N7        30.53F WCI  32
$$

AZZ023-081900-
GREATER PHOENIX AREA

CITY           SKY/WX    TMP DP  RH WIND       PRES   REMARKS
PHOENIX        MOSUNNY   72  19  13 E16       30.22F
6HR MIN TEMP:  51; 6HR MAX TEMP:  72;

BUCKEYE        SUNNY     66  28  24 CALM      30.25F
GLENDALE       SUNNY     70  25  18 SE5       30.25S
LUKE AFB       SUNNY     72  24  16 SE8       30.22F
6HR MIN TEMP:  54; 6HR MAX TEMP:  72;

DEER VALLEY    SUNNY     72  21  14 CALM      30.23F
6HR MIN TEMP:  52; 6HR MAX TEMP:  72;

SCOTTSDALE     SUNNY     71  21  15 CALM      30.25S
6HR MIN TEMP:  51; 6HR MAX TEMP:  71;

MESA-FALCON    SUNNY    N/A N/A N/A NE21      30.24R
MESA-GATEWAY   MOSUNNY   68  27  21 S5        30.25S
CHANDLER         N/A     68  30  24 CALM      30.24S
$$

AZZ027-028-081900-
SOUTHWEST MARICOPA COUNTY AND PINAL COUNTY

CITY           SKY/WX    TMP DP  RH WIND       PRES   REMARKS
CASA GRANDE    SUNNY     70  25  18 NE9       30.24S
6HR MIN TEMP:  45; 6HR MAX TEMP:  70;

GILA BEND      MOSUNNY   73  20  13 NE15      30.20S
6HR MIN TEMP:  47; 6HR MAX TEMP:  73;

$$

AZZ503-504-507>509-081900-
SOUTHEAST ARIZONA

CITY           SKY/WX    TMP DP  RH WIND       PRES   REMARKS
TUCSON         SUNNY     72  13  10 E20       30.25S
6HR MIN TEMP:  39; 6HR MAX TEMP:  72;

DAVIS-MONTHAN  SUNNY     72  17  12 NE8       30.22F
6HR MIN TEMP:  43; 6HR MAX TEMP:  72;

RYAN FIELD     SUNNY     75  21  13 E18G25    30.22F
NOGALES        SUNNY     69  15  12 VRB7      30.27S
6HR MIN TEMP:  39; 6HR MAX TEMP:  69;

SIERRA VISTA   MOSUNNY   63  12  13 SE12      30.34S
6HR MIN TEMP:  36; 6HR MAX TEMP:  63;

DOUGLAS        MOSUNNY   66  16  14 E13       30.33F
6HR MIN TEMP:  26; 6HR MAX TEMP:  66;

SAFFORD        SUNNY     61  20  20 SE8       30.37F
6HR MIN TEMP:  29; 6HR MAX TEMP:  61;

$$

AZZ020-021-025-026-031-081900-
SOUTHWEST ARIZONA

CITY           SKY/WX    TMP DP  RH WIND       PRES   REMARKS
YUMA           MOSUNNY   73  20  13 N20G26    30.22S
6HR MIN TEMP:  63; 6HR MAX TEMP:  73;

$$

CAZ031-033-041-043-047-048-061-081900-
SOUTHERN CALIFORNIA

CITY           SKY/WX    TMP DP  RH WIND       PRES   REMARKS
DOWNTOWN L.A.  SUNNY     78  33  19 CALM      30.14R
6HR MIN TEMP:  53; 6HR MAX TEMP:  78;

L.A. AIRPORT   SUNNY     79  31  17 CALM      30.15R
6HR MIN TEMP:  52; 6HR MAX TEMP:  79;

SAN DIEGO      SUNNY     77  24  14 NW6       30.14S
6HR MIN TEMP:  53; 6HR MAX TEMP:  77;

BURBANK        SUNNY     78  29  16 CALM      30.16R
6HR MIN TEMP:  61; 6HR MAX TEMP:  78;

ONTARIO        SUNNY     82  17   9 NE16G28   30.16S
6HR MIN TEMP:  72; 6HR MAX TEMP:  82;

RIVERSIDE      SUNNY     77  21  12 NE13G24   30.22R
6HR MIN TEMP:  69; 6HR MAX TEMP:  77;

PALM SPRINGS   SUNNY     78  22  12 N8        30.29S
6HR MIN TEMP:  65; 6HR MAX TEMP:  78;

EL CENTRO NAS  MOSUNNY   73  28  18 N6        30.26S
6HR MIN TEMP:  28; 6HR MAX TEMP:  73;

IMPERIAL       SUNNY     74  31  20 N7        30.24S
6HR MIN TEMP:  48; 6HR MAX TEMP:  74;

BLYTHE         SUNNY     71  21  15 N18       30.28S
6HR MIN TEMP:  53; 6HR MAX TEMP:  71;

NEEDLES        SUNNY     68  24  19 N24G35    30.34S
6HR MIN TEMP:  58; 6HR MAX TEMP:  68;

$$

NVZ020-UTZ003-081900-
SOUTHERN NEVADA-UTAH

CITY           SKY/WX    TMP DP  RH WIND       PRES   REMARKS
LAS VEGAS      SUNNY     59  24  26 VRB6      30.43F
6HR MIN TEMP:  45; 6HR MAX TEMP:  60;

SALT LAKE CITY PTSUNNY   33  24  69 SW5       30.72S WCI  29
6HR MIN TEMP:  22; 6HR MAX TEMP:  35;

$$

NMZ009-TXZ055-081900-
NEW MEXICO-WEST TEXAS

CITY           SKY/WX    TMP DP  RH WIND       PRES   REMARKS
ALBUQUERQUE    MOSUNNY   47  18  31 N8        30.47F
6HR MIN TEMP:  29; 6HR MAX TEMP:  47;

EL PASO        PTSUNNY   49  18  29 E3        30.45F
6HR MIN TEMP:  36; 6HR MAX TEMP:  49;

$$


........................KEY........................
SKY/WX - SKY CONDITION/WEATHER
TMP    - TEMPERATURE IN FAHRENHEIT
DP     - DEW POINT IN FAHRENHEIT
RH     - RELATIVE HUMIDITY IN PERCENT
WIND   - DIRECTION AND SPEED IN MILES PER HOUR (MPH)
VRB    - VARIABLE WIND DIRECTION
PRES   - MEAN SEA LEVEL PRESSURE IN INCHES OF MERCURY
         F - FALLING PRESSURE   R - RISING PRESSURE
         S - STEADY PRESSURE
VSB    - VISIBILITY IN MILES
HX     - HEAT INDEX IN FAHRENHEIT
WCI    - WIND CHILL INDEX IN FAHRENHEIT
TC     - TEMPERATURE IN CELSIUS WHICH IS ALSO KNOWN AS
         TEMPERATURE IN CENTIGRADE
AFB    - AIR FORCE BASE
         LUKE AFB IS LUKE AIR FORCE BASE
         DAVIS-MONTHAN IS DAVIS-MONTHAN AIR FORCE BASE
NAS    - NAVAL AIR STATION
         EL CENTRO NAS IS EL CENTRO NAVAL AIR STATION
N/A    - NOT AVAILABLE





USA.gov is the U.S. government's official web portal to all federal, state and local government web resources and services.